Location: *
(34.0486°S, 61.7880°E)
Time: 16:56:29
(UTC+00:00)

YAOGAN 1 - Pass Details

Date: 01 April 2020
Orbit: 618 x 620 km, 97.9° (Epoch: 26 May)

Event Time Altitude Azimuth Distance (km) Brightness Sun altitude
Rises 14:15:42 0° 147° (SSE) 2,925 5.7 -6.7°
Reaches altitude 10° 14:18:37 10° 127° (SE) 2,009 4.7 -7.3°
Maximum altitude 14:21:27 17° 86° (E) 1,597 4.0 -7.9°
Drops below altitude 10° 14:24:16 10° 45° (NE) 1,991 4.7 -8.5°
Sets 14:27:07 0° 25° (NNE) 2,886 5.7 -9.1°
